User: anonymous   Login
Location: Columbia
(38.9520°N, 92.3340°W)
Time: 10:21:02
(UTC-05:00)
Language:

Iridium 52 - Orbit

View from above orbital plane
View from above orbital plane
View from above satellite
View from above satellite

Ground track
Ground track

The orbit data is extracted from the following two-line orbital elements,

1 25169U 98010A   14296.24452547  .00000507  00000-0  17412-3 0  7310
2 25169 086.3998 034.9545 0002264 111.6182 304.8777 14.34217388873041
Epoch (UTC): 23 October 2014 05:52:07
Eccentricity: 0.0002264
inclination: 86.3998°
perigee height: 776 km
apogee height: 779 km
right ascension of ascending node: 34.9545°
argument of perigee: 111.6182°
revolutions per day: 14.34217388
mean anomaly at epoch: 304.8777°
orbit number at epoch: 87304

The dashed part of the orbit path shows where the satellite is in the earth's shadow,  

DLR